Tiempo cada hora Almalyk

Hoy, 3 Agosto, Martes

Tiempo Temperatura Precipitaciones Viento Presión Humedad
00:00 +24°C° 0 mm 3 mps 683 mmHg 39%
01:00 +22°C° 0 mm 3 mps 683 mmHg 40%
02:00 +22°C° 0 mm 3 mps 683 mmHg 40%
03:00 +22°C° 0 mm 3 mps 683 mmHg 41%
04:00 +22°C° 0 mm 3 mps 683 mmHg 42%
05:00 +21°C° 0 mm 3 mps 683 mmHg 43%
06:00 +25°C° 0 mm 2 mps 684 mmHg 37%
07:00 +28°C° 0 mm 1 mps 684 mmHg 31%
08:00 +31°C° 0 mm 1 mps 685 mmHg 25%
09:00 +32°C° 0 mm 2 mps 684 mmHg 23%
10:00 +35°C° 0 mm 2 mps 684 mmHg 20%
11:00 +37°C° 0 mm 3 mps 684 mmHg 17%
12:00 +38°C° 0 mm 4 mps 684 mmHg 15%
13:00 +40°C° 0 mm 4 mps 684 mmHg 14%
14:00 +40°C° 0 mm 4 mps 683 mmHg 12%
15:00 +40°C° 0 mm 4 mps 683 mmHg 12%
16:00 +40°C° 0 mm 4 mps 683 mmHg 11%
17:00 +40°C° 0 mm 4 mps 682 mmHg 11%
18:00 +36°C° 0 mm 3 mps 682 mmHg 14%
19:00 +32°C° 0 mm 2 mps 682 mmHg 17%
20:00 +29°C° 0 mm 1 mps 682 mmHg 20%
21:00 +29°C° 0 mm 2 mps 682 mmHg 22%
22:00 +28°C° 0 mm 2 mps 683 mmHg 23%
23:00 +27°C° 0 mm 2 mps 683 mmHg 25%

Mañana, 4 Agosto, Miércoles

Tiempo Temperatura Precipitaciones Viento Presión Humedad
00:00 +26°C° 0 mm 3 mps 683 mmHg 27%
01:00 +25°C° 0 mm 3 mps 683 mmHg 28%
02:00 +25°C° 0 mm 3 mps 683 mmHg 29%
03:00 +24°C° 0 mm 3 mps 683 mmHg 30%
04:00 +24°C° 0 mm 3 mps 683 mmHg 32%
05:00 +24°C° 0 mm 3 mps 683 mmHg 33%
06:00 +27°C° 0 mm 2 mps 683 mmHg 28%
07:00 +30°C° 0 mm 2 mps 684 mmHg 23%
08:00 +33°C° 0 mm 1 mps 684 mmHg 18%
09:00 +35°C° 0 mm 2 mps 684 mmHg 16%
10:00 +37°C° 0 mm 3 mps 684 mmHg 15%
11:00 +40°C° 0 mm 4 mps 684 mmHg 13%
12:00 +41°C° 0 mm 4 mps 684 mmHg 12%
13:00 +41°C° 0 mm 5 mps 683 mmHg 11%
14:00 +42°C° 0 mm 5 mps 683 mmHg 10%
15:00 +42°C° 0 mm 5 mps 683 mmHg 10%
16:00 +41°C° 0 mm 5 mps 682 mmHg 10%
17:00 +41°C° 0 mm 5 mps 682 mmHg 10%
18:00 +36°C° 0 mm 5 mps 683 mmHg 18%
19:00 +33°C° 0 mm 4 mps 683 mmHg 26%
20:00 +28°C° 0 mm 4 mps 683 mmHg 33%
21:00 +27°C° 0 mm 3 mps 683 mmHg 34%
22:00 +27°C° 0 mm 3 mps 683 mmHg 35%
23:00 +26°C° 0 mm 3 mps 683 mmHg 35%

Pasado mañana, 5 Agosto, Jueves

Tiempo Temperatura Precipitaciones Viento Presión Humedad
00:00 +26°C° 0 mm 3 mps 683 mmHg 36%
01:00 +25°C° 0 mm 3 mps 683 mmHg 36%
02:00 +25°C° 0 mm 3 mps 683 mmHg 36%
03:00 +24°C° 0 mm 3 mps 683 mmHg 38%
04:00 +24°C° 0 mm 3 mps 683 mmHg 40%
05:00 +22°C° 0 mm 3 mps 683 mmHg 42%
06:00 +26°C° 0.1 mm 2 mps 683 mmHg 37%
07:00 +28°C° 0.1 mm 1 mps 684 mmHg 33%
08:00 +31°C° 0.1 mm 1 mps 684 mmHg 28%
09:00 +34°C° 0 mm 2 mps 684 mmHg 24%
10:00 +36°C° 0 mm 3 mps 684 mmHg 20%
11:00 +38°C° 0 mm 4 mps 684 mmHg 16%
12:00 +40°C° 0 mm 4 mps 683 mmHg 14%
13:00 +40°C° 0 mm 5 mps 683 mmHg 13%
14:00 +41°C° 0 mm 5 mps 683 mmHg 12%
15:00 +41°C° 0 mm 5 mps 682 mmHg 12%
16:00 +40°C° 0 mm 5 mps 682 mmHg 12%
17:00 +40°C° 0 mm 4 mps 682 mmHg 13%
18:00 +37°C° 0 mm 3 mps 682 mmHg 15%
19:00 +34°C° 0 mm 2 mps 682 mmHg 18%
20:00 +30°C° 0 mm 2 mps 682 mmHg 20%
21:00 +29°C° 0 mm 2 mps 682 mmHg 23%
22:00 +28°C° 0 mm 2 mps 682 mmHg 27%
23:00 +26°C° 0 mm 2 mps 682 mmHg 30%

6 Agosto, Viernes

Tiempo Temperatura Precipitaciones Viento Presión Humedad
00:00 +26°C° 0 mm 3 mps 682 mmHg 31%
01:00 +25°C° 0 mm 3 mps 682 mmHg 33%
02:00 +25°C° 0 mm 3 mps 682 mmHg 34%
03:00 +24°C° 0 mm 3 mps 682 mmHg 34%
04:00 +24°C° 0 mm 3 mps 682 mmHg 35%
05:00 +24°C° 0 mm 3 mps 682 mmHg 35%
06:00 +26°C° 0 mm 2 mps 682 mmHg 30%
07:00 +29°C° 0 mm 1 mps 683 mmHg 25%
08:00 +32°C° 0 mm 1 mps 684 mmHg 20%
09:00 +35°C° 0 mm 2 mps 684 mmHg 18%
10:00 +36°C° 0 mm 3 mps 684 mmHg 16%
11:00 +38°C° 0 mm 4 mps 684 mmHg 14%
12:00 +40°C° 0 mm 5 mps 683 mmHg 13%
13:00 +41°C° 0 mm 5 mps 683 mmHg 12%
14:00 +41°C° 0 mm 5 mps 683 mmHg 11%
15:00 +41°C° 0 mm 5 mps 682 mmHg 11%
16:00 +41°C° 0 mm 5 mps 682 mmHg 11%
17:00 +41°C° 0 mm 5 mps 682 mmHg 10%
18:00 +37°C° 0 mm 4 mps 682 mmHg 14%
19:00 +33°C° 0 mm 3 mps 682 mmHg 17%
20:00 +29°C° 0 mm 2 mps 681 mmHg 20%
21:00 +28°C° 0 mm 2 mps 682 mmHg 22%
22:00 +28°C° 0 mm 3 mps 682 mmHg 23%
23:00 +27°C° 0 mm 3 mps 682 mmHg 25%

7 Agosto, Sábado

Tiempo Temperatura Precipitaciones Viento Presión Humedad
00:00 +26°C° 0 mm 3 mps 682 mmHg 26%
01:00 +26°C° 0 mm 3 mps 682 mmHg 27%
02:00 +25°C° 0 mm 3 mps 682 mmHg 28%
03:00 +25°C° 0 mm 3 mps 682 mmHg 28%
04:00 +25°C° 0 mm 3 mps 682 mmHg 29%
05:00 +25°C° 0 mm 3 mps 682 mmHg 29%
06:00 +27°C° 0 mm 2 mps 683 mmHg 27%
07:00 +29°C° 0 mm 2 mps 684 mmHg 24%
08:00 +31°C° 0 mm 1 mps 684 mmHg 22%
09:00 +34°C° 0 mm 2 mps 684 mmHg 20%
10:00 +35°C° 0 mm 3 mps 684 mmHg 18%
11:00 +37°C° 0 mm 4 mps 684 mmHg 16%
12:00 +38°C° 0 mm 4 mps 684 mmHg 14%
13:00 +40°C° 0 mm 4 mps 684 mmHg 13%
14:00 +41°C° 0 mm 4 mps 684 mmHg 12%
15:00 +41°C° 0 mm 5 mps 683 mmHg 12%
16:00 +41°C° 0 mm 5 mps 683 mmHg 12%
17:00 +40°C° 0 mm 5 mps 683 mmHg 11%
18:00 +36°C° 0 mm 4 mps 683 mmHg 14%
19:00 +34°C° 0 mm 3 mps 683 mmHg 17%
20:00 +30°C° 0 mm 2 mps 683 mmHg 20%
21:00 +29°C° 0 mm 2 mps 683 mmHg 23%
22:00 +28°C° 0 mm 2 mps 683 mmHg 25%
23:00 +27°C° 0 mm 3 mps 684 mmHg 28%

8 Agosto, Domingo

Tiempo Temperatura Precipitaciones Viento Presión Humedad
00:00 +26°C° 0 mm 3 mps 684 mmHg 29%
01:00 +26°C° 0 mm 3 mps 684 mmHg 30%
02:00 +25°C° 0 mm 3 mps 684 mmHg 31%
03:00 +25°C° 0 mm 3 mps 684 mmHg 31%
04:00 +24°C° 0 mm 2 mps 684 mmHg 32%
05:00 +24°C° 0 mm 2 mps 684 mmHg 33%
06:00 +26°C° 0.1 mm 2 mps 685 mmHg 30%
07:00 +28°C° 0.1 mm 1 mps 686 mmHg 27%
08:00 +30°C° 0.1 mm 1 mps 686 mmHg 24%
09:00 +32°C° 0 mm 2 mps 686 mmHg 21%
10:00 +35°C° 0 mm 3 mps 686 mmHg 19%
11:00 +37°C° 0 mm 5 mps 686 mmHg 16%
12:00 +39°C° 0 mm 5 mps 686 mmHg 15%
13:00 +39°C° 0 mm 5 mps 686 mmHg 13%
14:00 +40°C° 0 mm 5 mps 686 mmHg 12%
15:00 +40°C° 0 mm 5 mps 686 mmHg 12%
16:00 +39°C° 0 mm 6 mps 686 mmHg 12%
17:00 +39°C° 0 mm 6 mps 686 mmHg 12%
18:00 +35°C° 0 mm 5 mps 686 mmHg 15%
19:00 +31°C° 0 mm 3 mps 686 mmHg 19%
20:00 +28°C° 0 mm 2 mps 686 mmHg 23%
21:00 +27°C° 0 mm 2 mps 686 mmHg 25%
22:00 +27°C° 0 mm 3 mps 686 mmHg 28%
23:00 +26°C° 0 mm 3 mps 686 mmHg 30%
Mostrar más

Necesitamos Su Consentimiento

Meteoprog y nuestros Proveedores de Servicios pueden almacenar y acceder a sus datos personales como cookies, identificadores de dispositivo u otras tecnologías similares de su dispositivo y procesar dichos datos para personalizar contenido y anuncios, además de ofrecer funciones de redes sociales y analizar el tráfico.

  • Almacenar y/o acceder a información en su dispositivo

    Se puede almacenar o acceder a cookies, identificadores de dispositivo u otra información de su dispositivo para los fines anteriormente indicados.

  • Anuncios y contenido personalizados, medición de anuncios y contenido, percepciones del público, y desarrollo de productos

    Los anuncios y el contenido pueden personalizarse en base a su perfil. Se pueden añadir más datos para personalizar mejor los anuncios y contenidos. Se puede medir el rendimiento de los anuncios y contenidos. Se puede obtener la percepción sobre el público que ha visto los anuncios y contenidos. Dichos datos pueden usarse para desarrollar o mejorar la experiencia del usuario, sistemas y software.

Al hacer clic en ‘Estoy De Acuerdo’ usted permitirá el uso de las cookies, identificadores de dispositivo, balizas web u otras tecnologías similares indicadas. Su configuración puede cambiarse desde el navegador de su dispositivo.

Para ciertos fines, los intereses legítimos pueden ser considerados por encima del consentimiento. Puede leer más sobre ello en nuestra Política de Privacidad y Cookies.